Theta_e
305 307 309 310 313 311 313 320 321 325 325 325 324 322 320 318 317 315 314 314 314 314
299 301 304 305 307 305 305 306 307 308 308 306 307 314 319 319 317 317 316 315 315 314
295 297 297 299 300 300 300 301 301 300 300 299 299 300 302 302 301 304 303 304 308 311
292 293 294 294 295 294 295 296 296 296 294 294 294 295 294 294 294 294 294 295 295 294
291 291 291 291 292 293 292 292 292 292 291 291 291 291 291 290 290 290 290 291 292 291
287 288 288 289 290 291 291 290 290 289 289 288 289 289 289 288 288 287 287 288 288 289
285 285 286 287 287 288 289 288 288 288 288 287 287 287 287 287 286 286 285 286 286 286
284 285 285 285 286 286 286 287 287 287 287 287 287 286 285 285 284 283 282 283 283 284
284 284 283 284 284 284 284 284 284 284 285 285 285 286 285 283 281 281 280 279 280 280
282 282 282 282 283 282 282 283 283 283 283 283 284 285 284 283 281 281 280 280 279 279
281 281 281 281 281 281 282 281 281 282 282 282 283 285 284 282 280 280 280 280 280 280
281 281 281 280 280 281 281 281 281 282 282 281 282 285 284 282 281 280 280 281 281 280
280 280 279 279 280 280 281 280 281 281 281 281 282 285 284 281 280 279 279 279 281 283
279 279 279 278 278 279 279 279 278 278 279 280 280 282 284 283 279 278 278 278 279 280
Wind_Speed
5 3 3 4 4 3 1 3 0 6 7 11 12 11 11 8 9 9 9 11 10 8
2 3 2 3 3 2 5 5 6 8 9 9 8 4 4 5 7 7 8 9 12 10
8 4 2 3 3 6 6 6 8 10 8 6 8 9 7 5 6 5 4 4 3 5
7 5 4 5 6 8 9 7 5 7 9 7 7 7 7 10 7 8 6 6 6 6
7 6 6 8 10 9 9 9 9 9 10 10 11 9 10 10 8 9 10 8 9 9
9 7 9 11 11 10 8 10 10 11 12 12 10 12 10 11 10 12 11 10 10 9
8 11 12 11 12 11 10 12 12 13 13 12 12 10 11 10 12 11 11 11 11 11
12 13 13 12 13 11 13 12 13 13 12 12 13 6 11 10 10 11 11 10 10 11
12 13 13 12 12 13 13 13 13 12 13 13 9 17 18 12 10 10 11 10 9 9
12 14 13 12 14 13 12 12 12 12 11 13 12 19 19 17 9 9 9 8 7 8
12 13 12 11 12 11 11 11 10 10 9 10 11 18 18 17 10 10 10 9 8 7
8 10 10 11 10 9 10 11 10 8 10 10 10 15 15 12 9 10 10 8 8 6
8 9 9 8 8 8 10 10 8 10 9 9 9 14 13 10 5 8 6 6 6 13
9 8 7 7 7 7 8 9 8 9 7 8 8 11 15 14 6 5 4 4 5 4
Wind_Direction
221 256 273 277 294 134 65 298 199 208 224 216 214 213 181 185 201 195 200 208 216 217
346 5 304 278 289 110 86 74 42 68 62 28 26 14 212 214 205 199 202 214 223 222
55 27 350 60 41 69 67 65 82 68 57 56 39 46 32 59 28 43 40 16 317 254
55 45 49 66 65 61 60 47 67 86 90 57 67 50 65 59 56 70 60 50 67 49
71 65 71 67 62 68 71 66 58 67 80 78 60 60 65 69 56 70 63 55 61 52
62 69 65 64 67 74 84 83 74 81 71 68 68 70 65 72 75 66 62 59 58 50
62 60 60 59 65 67 70 76 74 70 71 68 73 72 77 74 73 75 65 61 58 58
56 56 57 60 63 70 67 65 65 73 74 70 70 63 82 80 77 79 76 63 61 58
55 64 55 56 60 62 65 67 71 65 72 73 74 78 80 80 78 69 71 69 60 55
52 59 60 56 60 59 63 68 69 65 74 81 81 82 78 74 72 75 69 68 66 62
53 60 58 59 64 59 60 60 60 59 60 74 79 82 85 81 78 73 60 55 51 62
46 65 71 66 62 62 68 63 56 51 52 59 64 71 71 69 66 66 59 59 59 67
43 57 60 61 64 69 71 65 62 55 45 52 64 72 75 75 78 74 58 41 45 63
19 36 44 58 47 62 72 76 60 61 38 43 39 57 64 66 58 62 66 54 39 36